User: anonymous   Login
Location: Unspecified
(0.0000°N, 0.0000°E)
Time: 18:10:58
(UTC+00:00)
Language:

ONEWEB-0656 - Orbit

View from above orbital plane
View from above orbital plane
View from above satellite
View from above satellite

Ground track
Ground track

The orbit is defined by the following mean orbital elements,

1 55817U          26145.40162690 +.00000000 +00000-0 +40192-3 0 00004
2 55817  87.9180 278.9719 0002337 101.7102 258.4294 13.20771828    04
Epoch (UTC): 25 May 2026 09:38:20
Eccentricity: 0.0002337
inclination: 87.9180°
perigee height: 1180 km
apogee height: 1184 km
right ascension of ascending node: 278.9719°
argument of perigee: 101.7102°
revolutions per day: 13.20771828
mean anomaly at epoch: 258.4294°

The dashed part of the orbit path shows where the satellite is in the earth's shadow,  

DLR